Preview of NWS' New Version of Forecast
This preview is not operational and should not be used for support decisions.

Regional Weather Roundup (RWR)

Issued by National Weather Service (NWS)

                            
000
ASUS42 KTBW 170316
RWRFL 
FLORIDA REGIONAL WEATHER ROUNDUP
NATIONAL WEATHER SERVICE TAMPA BAY RUSKIN FL
1100 PM EDT SAT MAR 16 2019

NOTE: "FAIR" INDICATES FEW OR NO CLOUDS BELOW 12,000 FEET WITH NO
SIGNIFICANT WEATHER AND/OR OBSTRUCTIONS TO VISIBILITY.

FLZ001>010-012>015-112-114-115-170400-
PANHANDLE FLORIDA
  
CITY           SKY/WX    TMP DP  RH WIND       PRES   REMARKS
PENSACOLA      CLOUDY    54  33  45 N13       30.26R                  
PENSACOLA NAS  CLOUDY    52  38  58 N7        30.26R                  
MILTON NAS     FAIR      49  38  65 N5        30.26R                  
CRESTVIEW      FAIR      51  35  54 N5        30.25F                  
DUKE FIELD     MOCLDY    52  35  52 N8        30.23S                  
VALPARAISO     CLOUDY    53  35  51 N8        30.23R                  
MARY ESTHER    MOCLDY    52  39  62 N8        30.23R                  
PANAMA CITY    CLOUDY    52  37  56 N8        30.22S                  
TYNDALL AFB    CLOUDY    55  36  50 N12       30.21S                  
APALACHICOLA   CLOUDY    55  37  50 N13       30.18F                  

STATION/POSITION SKY/WX   TEMP    WIND        PRES    WAVE   SWELL
                          AIR SEA DIR/SP/G            HT/PER HT/PER
                          (F)     (DEG/KT/KT) (MB)    (FT/S) (FT/S)
30.1N   87.6W              56     360/ 17/ 23 1024.8R   3/ 3
29.2N   88.2W                      30/ 16/ 21 1024.5R   4/ 4
PANAMA CITY BEAC           53 66   20/ 10/ 13 1023.6F
TOWER C                    57      30/ 18/ 20 1022.0R

$$
FLZ011-016>038-118-127-128-134-139-239-170400-
NORTH FLORIDA
  
CITY           SKY/WX    TMP DP  RH WIND       PRES   REMARKS
MARIANNA       CLOUDY    53  37  54 N5        30.23S                  
TALLAHASSEE    CLOUDY    55  38  52 N9        30.21S                  
PERRY          CLOUDY    56  47  72 N7        30.20S                  
LIVE OAK       MOCLDY    54  46  76 CALM      30.19R                  
CROSS CITY     FAIR      55  45  68 NE7       30.17F                  
LAKE CITY      FAIR      52  45  76 CALM      30.17F                  
GAINESVILLE    FAIR      59  48  67 N3        30.19R                  
WILLISTON        N/A    N/A N/A N/A MISG        N/A                   
PALATKA        MOCLDY   N/A N/A N/A SE3       30.15F                  
MAYPORT NAS    FAIR      62  51  67 N12       30.16S                  
JACKSONVILLE   CLOUDY    57  48  72 NW9       30.17R                  
JAX NAS        CLOUDY    62  48  60 N12       30.17R                  
JAX CECIL      NOT AVBL                                               
FERNANDINA BEA FAIR      59  50  71 NW8       30.16S                  
ST AUGUSTINE   FAIR      61  51  70 NE9       30.15F                  
PALM COAST     MOCLDY    59  51  76 N3        30.15S                  

STATION/POSITION SKY/WX   TEMP    WIND        PRES    WAVE   SWELL
                          AIR SEA DIR/SP/G            HT/PER HT/PER
                          (F)     (DEG/KT/KT) (MB)    (FT/S) (FT/S)
SHELL POINT      NOT AVBL
KEATON BEACH               54      20/  7/  9 1022.1S
CEDAR KEY                  61      10/  5/  7 1021.0R
FERNANDINA                 61 67  300/  3/  5 1022.3R
30.7N   81.3W                 63                N/A     2/11
MAYPORT                    62 66   20/  8/ 11 1021.1S
31.4N   80.9W              62 63   20/  8/ 10 1021.9    2/11   2/11
ST AUGUSTINE               62 63   30/ 11/ 12 1020.9F

$$
FLZ040-043>046-052-053-057-058-063-144-170400-
INTERIOR CENTRAL FLORIDA
  
CITY           SKY/WX    TMP DP  RH WIND       PRES   REMARKS
OCALA          CLOUDY    59  56  89 VRB5      30.17R                  
LEESBURG       CLOUDY    62  51  67 NE7       30.15R                  
SANFORD        FAIR      62  51  67 N6        30.14R                  
ORLANDO EXEC   CLOUDY    65  53  65 NE7       30.14S                  
ORLANDO INTL   CLOUDY    65  53  65 NE10      30.14R                  
KISSIMMEE      CLOUDY    65  56  72 NE7       30.14S                  
WINTER HAVEN   MOCLDY    64  61  90 E9        30.13F                  
LAKELAND       MOCLDY    64  61  88 E5        30.13R                  
BARTOW         FAIR      63  63 100 VRB3      30.12R                  
SEBRING        CLOUDY    67  64  90 NE6       30.13S                  
OKEECHOBEE     MOCLDY    64  64 100 CALM      30.11F                  

$$
FLZ041-047-054-059-064-141-147-170400-
EAST CENTRAL FLORIDA
  
CITY           SKY/WX    TMP DP  RH WIND       PRES   REMARKS
DAYTONA BEACH  MOCLDY    63  54  72 NE9       30.14S                  
DELAND         CLOUDY    61  50  67 CALM      30.14S                  
JFK SPACE CTR  FAIR     N/A N/A N/A NE5         N/A                   
CAPE CANAVERAL FAIR      65  59  79 N6        30.11F                  
PATRICK AFB    FAIR      65  62  90 N12       30.12S                  
MELBOURNE      CLOUDY    67  60  78 N13       30.11F                  
VERO BEACH     CLOUDY    68  63  84 N9        30.11F                  
FT PIERCE      CLOUDY    68  64  87 N5        30.10F                  
STUART         MOCLDY    70  66  88 NE3       30.12S                  

STATION/POSITION SKY/WX   TEMP    WIND        PRES    WAVE   SWELL
                          AIR SEA DIR/SP/G            HT/PER HT/PER
                          (F)     (DEG/KT/KT) (MB)    (FT/S) (FT/S)
28.5N   80.2W              69     340/ 12/ 14 1020.0F   3/ 6   2/11
28.9N   78.5W              73 75   20/ 12/ 14 1019.8F   3/ 9   2/ 9
TRIDENT PIER               65 70  350/  6/  8 1021.1F
28.4N   80.5W                 70                N/A     2/ 5
27.5N   80.2W                 72                N/A     3/ 5

$$
FLZ050-056-061-142-242-148-248-149-249-151-251-155-255-
160-260-170400-
WEST CENTRAL FLORIDA
  
CITY           SKY/WX    TMP DP  RH WIND       PRES   REMARKS
CRYSTAL RIVER  CLOUDY    61  55  82 NE5       30.15S                  
INVERNESS      CLOUDY    63  61  94 N5        30.14F                  
BROOKSVILLE    CLOUDY    69  55  60 NE7       30.13S                  
CLEARWATER AIR FAIR      70  61  73 NE7       30.11F                  
ST PETE CLEARW MOCLDY    71  62  73 NE14      30.11R                  
TAMPA INTL     MOCLDY    71  60  68 NE9G16    30.12R                  
TAMPA EXEC     CLOUDY    66  61  82 E6        30.14R                  
PLANT CITY     FAIR      66  64  94 CALM      30.15R                  
MACDILL AFB    FAIR      69  63  82 E9        30.11R                  
PETER O KNIGHT CLOUDY    70  66  88 NE9       30.12S                  
ST PETERSBURG  MOCLDY    73  64  73 NE17      30.10R                  
SARASOTA       FAIR      71  67  87 N3        30.09R                  
VENICE         FAIR      72  70  94 NE6       30.10S                  

STATION/POSITION SKY/WX   TEMP    WIND        PRES    WAVE   SWELL
                          AIR SEA DIR/SP/G            HT/PER HT/PER
                          (F)     (DEG/KT/KT) (MB)    (FT/S) (FT/S)
27.3N   84.2W                 74                N/A     4/ 6
CLEARWATER BEACH           72 76   30/  8/ 12 1019.8R
MIDDLE TAMPA BAY           72      60/ 12/ 15 1019.7R
VENICE                     71 73   20/  4/  5 1019.0R

$$
FLZ066-069-070-075>078-162-262-165-265-170400-
SOUTHWEST FLORIDA AND KEYS
  
CITY           SKY/WX    TMP DP  RH WIND       PRES   REMARKS
PUNTA GORDA    FAIR      68  66  93 E6        30.11F                  
FT MYERS       FAIR      71  69  93 E3        30.09S                  
SOUTHWEST INTL FAIR      71  68  90 E5        30.09F                  
NAPLES         FAIR      75  72  90 CALM      30.09S                  
MARCO ISLAND   FAIR      74  71  91 CALM      30.11S                  
IMMOKALEE      CLOUDY    70  68  94 CALM      30.09S                  
MARATHON       FAIR      78  67  68 CALM      30.10R                  
KEY WEST NAS   FAIR      77  68  73 E3        30.10R                  
KEY WEST INTL  FAIR      77  69  76 E3        30.10S                  

STATION/POSITION SKY/WX   TEMP    WIND        PRES    WAVE   SWELL
                          AIR SEA DIR/SP/G            HT/PER HT/PER
                          (F)     (DEG/KT/KT) (MB)    (FT/S) (FT/S)
NAPLES                     75 78   60/  2/  3 1019.1F
26.0N   85.6W              76 80   80/ 10/ 14 1019.1R   3/ 7   3/ 7
DRY TORTUGAS               77      50/  6/  7 1019.0S
SAND KEY                   77                 1019.2R
SOMBRERO KEY               77                 1018.6R
MOLASSES REEF              77 78  360/  2/  3 1019.5R

$$
FLZ067-068-071>074-168-172>174-170400-
SOUTHEAST FLORIDA 
  
CITY           SKY/WX    TMP DP  RH WIND       PRES   REMARKS
W PALM BEACH   MOCLDY    71  68  90 CALM      30.11S                  
BOCA RATON     LGT RAIN  72  70  94 CALM      30.11R                  
FT LAUDER-EXEC RAIN      71  71 100 SW5       30.11R FOG              
FT LAUDERDALE  MOCLDY    73  65  75 W6        30.10R                  
POMPANO BEACH  LGT RAIN  72  69  90 NW6       30.11R FOG              
PEMBROKE PINES LGT RAIN  70  68  93 W3        30.13R                  
OPA LOCKA      LGT RAIN  69  66  90 N6        30.12R                  
MIAMI          LGT RAIN  71  70  96 W8        30.11S                  
WEST KENDALL   RAIN      72  70  93 SE3       30.10S                  
HOMESTEAD      CLOUDY    73  64  72 S6        30.09S                  

STATION/POSITION SKY/WX   TEMP    WIND        PRES    WAVE   SWELL
                          AIR SEA DIR/SP/G            HT/PER HT/PER
                          (F)     (DEG/KT/KT) (MB)    (FT/S) (FT/S)
PORT EVERGLADES            74     280/  8/ 11 1019.4R
VIRGINIA KEY               76 79  210/ 11/ 12 1018.7R
LAKE WORTH                 72 78  270/  2/  2 1020.6R
FOWEY ROCKS                75 77  240/ 13/ 13 1019.8R
SETTLEMENT POINT           74      50/  7/  9 1019.5S

$$